Ft. Stewart, GA

1:50 PM EDT on April 27, 2017 (GMT -0400)
Wright Army Air Field

Weather History for KLHW - June, 2013

Change the Weather History Date:

Wednesday, June 12, 2013

  Actual Average Record
Temperature  
Mean Temperature 86 °F -  
Max Temperature 96 °F 89 °F 99 °F (1993)
Min Temperature 76 °F 66 °F 57 °F (1972)
Cooling Degree Days 21    
Growing Degree Days 36 (Base 50)    
Moisture  
Dew Point 73 °F    
Average Humidity 69    
Maximum Humidity 95    
Minimum Humidity 43    
Precipitation  
Precipitation 0.00 in - - ()
Sea Level Pressure  
Sea Level Pressure 29.99 in    
Wind  
Wind Speed 7 mph (West)    
Max Wind Speed 15 mph    
Max Gust Speed 18 mph    
Visibility 10 miles    
Events      
Averages and records for this station are not official NWS values.
T = Trace of Precipitation, MM = Missing Value Source: NWS Daily Summary

Daily Weather History Graph

Daily Weather History Graph

Search for Another Location

Airport or City:

Trip Planner

Search our weather history database for the weather conditions in past years. The results will help you decide how hot, cold, wet, or windy it might be!

Date:

Astronomy

Jun. 12, 2013 Rise Set
Actual Time 6:19 AM EDT 8:32 PM EDT
Civil Twilight 5:51 AM EDT 9:00 PM EDT
Nautical Twilight 5:17 AM EDT 9:35 PM EDT
Astronomical Twilight 4:40 AM EDT 10:12 PM EDT
Moon 9:48 AM EDT (6/12) 11:19 PM EDT (6/12)
Length of Visible Light 15h 08m
Length of Day
14h 12m
Waxing Crescent, 14% of the Moon is Illuminated
Jun 12
Waxing Crescent
Jun 16
First Quarter
Jun 23
Full
Jun 30
Last Quarter
Jul 8
New

Hourly Weather History & Observations

Time (EDT) Temp. Heat Index Dew Point Humidity Pressure Visibility Wind Dir Wind Speed Gust Speed Precip Events Conditions
12:58 AM 81.0 °F 84.9 °F 71.2 °F 72% 30.01 in 10.0 mi West 8.1 mph - N/A   Clear
1:58 AM 79.3 °F - 71.4 °F 77% 30.01 in 10.0 mi WSW 3.5 mph - N/A   Clear
2:58 AM 77.5 °F - 71.8 °F 82% 30.00 in 10.0 mi SW 4.6 mph - N/A   Clear
3:58 AM 76.6 °F - 72.1 °F 86% 30.00 in 10.0 mi SSW 4.6 mph - N/A   Clear
4:58 AM 77.4 °F - 72.1 °F 84% 30.00 in 10.0 mi SW 5.8 mph - N/A   Mostly Cloudy
5:58 AM 76.6 °F - 72.1 °F 86% 30.01 in 10.0 mi WSW 8.1 mph - N/A   Partly Cloudy
6:58 AM 77.7 °F - 72.0 °F 82% 30.02 in 10.0 mi West 9.2 mph - N/A   Clear
7:58 AM 79.9 °F - 72.7 °F 79% 30.02 in 10.0 mi West 8.1 mph - N/A   Clear
8:58 AM 83.5 °F 90.0 °F 73.8 °F 72% 30.03 in 10.0 mi West 6.9 mph - N/A   Clear
9:58 AM 87.3 °F 96.3 °F 74.5 °F 66% 30.03 in 10.0 mi West 10.4 mph - N/A   Clear
10:58 AM 89.8 °F 100.3 °F 75.4 °F 62% 30.03 in 10.0 mi WNW 8.1 mph - N/A   Clear
11:58 AM 89.1 °F 98.5 °F 74.7 °F 62% 30.03 in 10.0 mi West 9.2 mph - N/A   Clear
12:58 PM 93.0 °F 100.7 °F 71.6 °F 50% 30.02 in 10.0 mi Variable 4.6 mph - N/A   Scattered Clouds
1:58 PM 94.3 °F 102.2 °F 72.0 °F 48% 30.01 in 10.0 mi WNW 10.4 mph - N/A   Mostly Cloudy
2:06 PM 95.0 °F 104.5 °F 73.4 °F 49% 30.00 in 10.0 mi WNW 11.5 mph 18.4 mph N/A   Mostly Cloudy
2:58 PM 95.0 °F 103.8 °F 72.7 °F 48% 30.00 in 10.0 mi West 11.5 mph - N/A   Scattered Clouds
3:58 PM 96.4 °F 104.3 °F 71.2 °F 44% 29.98 in 10.0 mi WNW 15.0 mph 18.4 mph N/A   Partly Cloudy
4:58 PM 96.4 °F 103.7 °F 70.3 °F 43% 29.96 in 10.0 mi WNW 10.4 mph 17.3 mph N/A   Clear
5:58 PM 95.9 °F 103.2 °F 70.7 °F 44% 29.95 in 10.0 mi West 8.1 mph - N/A   Clear
6:58 PM 95.0 °F 103.2 °F 72.0 °F 47% 29.94 in 10.0 mi West 6.9 mph - N/A   Partly Cloudy
7:58 PM 91.8 °F 101.5 °F 73.9 °F 56% 29.96 in 10.0 mi West 3.5 mph - N/A   Clear
8:58 PM 84.7 °F 93.6 °F 75.7 °F 74% 29.95 in 10.0 mi Calm Calm - N/A   Clear
9:58 PM 81.9 °F 89.7 °F 76.8 °F 85% 29.97 in 10.0 mi Calm Calm - N/A   Clear
10:58 PM 79.7 °F - 76.5 °F 90% 29.98 in 10.0 mi Calm Calm - N/A   Clear
11:33 PM 78.8 °F - 77.0 °F 94% 29.97 in 9.0 mi Calm Calm - N/A   Clear
11:43 PM 78.8 °F - 77.0 °F 94% 29.97 in 4.0 mi Calm Calm - N/A   Clear
11:58 PM 78.4 °F - 77.0 °F 95% 29.97 in 3.0 mi Calm Calm - N/A   Clear